Time,TemperatureF,DewpointF,PressureIn,WindDirection,WindDirectionDegrees,WindSpeedMPH,WindSpeedGustMPH,Humidity,HourlyPrecipIn,Conditions,Clouds,dailyrainin,SoftwareType,DateUTC
2013-03-26 00:04:00,43.7,28.0,29.95,WNW,296,0.0,-999.0,54,-99.99,,,0.00,weatherlink.com 1.10,2013-03-26 04:04:00,
2013-03-26 00:19:00,43.2,27.0,29.96,NW,313,0.0,-999.0,54,-99.99,,,0.00,weatherlink.com 1.10,2013-03-26 04:19:00,
2013-03-26 00:35:00,42.6,28.0,29.96,WNW,293,0.0,-999.0,57,-99.99,,,0.00,weatherlink.com 1.10,2013-03-26 04:35:00,
2013-03-26 00:50:00,42.0,28.0,29.96,NW,317,1.0,-999.0,58,-99.99,,,0.00,weatherlink.com 1.10,2013-03-26 04:50:00,
2013-03-26 01:05:00,41.9,28.0,29.97,NW,308,0.0,-999.0,59,-99.99,,,0.00,weatherlink.com 1.10,2013-03-26 05:05:00,
2013-03-26 01:20:00,41.6,28.0,29.97,WNW,294,0.0,-999.0,59,-99.99,,,0.00,weatherlink.com 1.10,2013-03-26 05:20:00,
2013-03-26 01:35:00,41.4,28.0,29.97,WNW,302,0.0,-999.0,59,-99.99,,,0.00,weatherlink.com 1.10,2013-03-26 05:35:00,
2013-03-26 01:50:00,41.1,28.0,29.97,West,271,1.0,-999.0,59,-99.99,,,0.00,weatherlink.com 1.10,2013-03-26 05:50:00,
2013-03-26 02:05:00,40.9,27.0,29.97,NW,309,1.0,-999.0,59,-99.99,,,0.00,weatherlink.com 1.10,2013-03-26 06:05:00,
2013-03-26 02:20:00,40.7,27.0,29.97,North,5,0.0,-999.0,59,-99.99,,,0.00,weatherlink.com 1.10,2013-03-26 06:20:00,
2013-03-26 02:35:00,40.3,27.0,29.97,WNW,283,0.0,-999.0,60,-99.99,,,0.00,weatherlink.com 1.10,2013-03-26 06:35:00,
2013-03-26 02:50:00,39.8,28.0,29.97,West,268,0.0,-999.0,62,-99.99,,,0.00,weatherlink.com 1.10,2013-03-26 06:50:00,
2013-03-26 03:05:00,39.4,28.0,29.97,WNW,290,0.0,-999.0,63,-99.99,,,0.00,weatherlink.com 1.10,2013-03-26 07:05:00,
2013-03-26 03:20:00,39.0,27.0,29.97,WNW,290,0.0,-999.0,63,-99.99,,,0.00,weatherlink.com 1.10,2013-03-26 07:20:00,
2013-03-26 03:35:00,38.7,28.0,29.98,WNW,290,0.0,-999.0,65,-99.99,,,0.00,weatherlink.com 1.10,2013-03-26 07:35:00,
2013-03-26 03:50:00,38.4,27.0,29.97,WNW,290,0.0,-999.0,65,-99.99,,,0.00,weatherlink.com 1.10,2013-03-26 07:50:00,
2013-03-26 04:05:00,38.0,27.0,29.97,WNW,290,0.0,-999.0,66,-99.99,,,0.00,weatherlink.com 1.10,2013-03-26 08:05:00,
2013-03-26 04:20:00,37.6,27.0,29.97,WNW,290,0.0,-999.0,67,-99.99,,,0.00,weatherlink.com 1.10,2013-03-26 08:20:00,
2013-03-26 04:35:00,37.5,28.0,29.97,WNW,290,0.0,-999.0,68,-99.99,,,0.00,weatherlink.com 1.10,2013-03-26 08:35:00,
2013-03-26 04:50:00,37.3,28.0,29.97,WNW,290,0.0,-999.0,68,-99.99,,,0.00,weatherlink.com 1.10,2013-03-26 08:50:00,
2013-03-26 05:05:00,36.9,28.0,29.97,WNW,290,0.0,-999.0,69,-99.99,,,0.00,weatherlink.com 1.10,2013-03-26 09:05:00,
2013-03-26 05:20:00,36.6,27.0,29.97,WNW,290,0.0,-999.0,69,-99.99,,,0.00,weatherlink.com 1.10,2013-03-26 09:20:00,
2013-03-26 05:35:00,36.4,27.0,29.98,WNW,290,0.0,-999.0,70,-99.99,,,0.00,weatherlink.com 1.10,2013-03-26 09:35:00,
2013-03-26 05:50:00,36.2,27.0,29.98,WNW,290,0.0,-999.0,70,-99.99,,,0.00,weatherlink.com 1.10,2013-03-26 09:50:00,
2013-03-26 06:05:00,35.9,27.0,29.98,WNW,290,0.0,-999.0,71,-99.99,,,0.00,weatherlink.com 1.10,2013-03-26 10:05:00,
2013-03-26 06:20:00,35.6,27.0,29.99,WNW,290,0.0,-999.0,72,-99.99,,,0.00,weatherlink.com 1.10,2013-03-26 10:20:00,
2013-03-26 06:35:00,35.5,28.0,29.99,WNW,290,0.0,-999.0,73,-99.99,,,0.00,weatherlink.com 1.10,2013-03-26 10:35:00,
2013-03-26 06:50:00,35.3,27.0,30.00,WNW,290,0.0,-999.0,73,-99.99,,,0.00,weatherlink.com 1.10,2013-03-26 10:50:00,
2013-03-26 07:05:00,35.0,28.0,30.00,WNW,290,0.0,-999.0,74,-99.99,,,0.00,weatherlink.com 1.10,2013-03-26 11:05:00,
2013-03-26 07:20:00,34.9,28.0,30.00,WNW,290,0.0,-999.0,75,-99.99,,,0.00,weatherlink.com 1.10,2013-03-26 11:20:00,
2013-03-26 07:35:00,34.8,28.0,30.00,WNW,290,0.0,-999.0,75,-99.99,,,0.00,weatherlink.com 1.10,2013-03-26 11:35:00,
2013-03-26 07:50:00,35.0,28.0,30.00,North,355,0.0,-999.0,76,-99.99,,,0.00,weatherlink.com 1.10,2013-03-26 11:50:00,
2013-03-26 08:05:00,35.7,29.0,30.01,WSW,258,0.0,-999.0,75,-99.99,,,0.00,weatherlink.com 1.10,2013-03-26 12:05:00,
2013-03-26 08:20:00,37.1,29.0,30.01,West,263,1.0,-999.0,73,-99.99,,,0.00,weatherlink.com 1.10,2013-03-26 12:20:00,
2013-03-26 08:36:00,38.7,30.0,30.02,NNW,340,3.0,-999.0,71,-99.99,,,0.00,weatherlink.com 1.10,2013-03-26 12:36:00,
2013-03-26 08:51:00,40.3,30.0,30.02,West,263,1.0,-999.0,66,-99.99,,,0.00,weatherlink.com 1.10,2013-03-26 12:51:00,
2013-03-26 09:06:00,41.8,30.0,30.02,West,279,3.0,-999.0,64,-99.99,,,0.00,weatherlink.com 1.10,2013-03-26 13:06:00,
2013-03-26 09:21:00,42.9,31.0,30.02,NW,313,1.0,-999.0,63,-99.99,,,0.00,weatherlink.com 1.10,2013-03-26 13:21:00,
2013-03-26 09:36:00,44.0,31.0,30.02,West,262,3.0,-999.0,60,-99.99,,,0.00,weatherlink.com 1.10,2013-03-26 13:36:00,
2013-03-26 09:51:00,45.0,32.0,30.02,West,278,0.0,-999.0,60,-99.99,,,0.00,weatherlink.com 1.10,2013-03-26 13:51:00,
2013-03-26 10:06:00,46.0,31.0,30.02,WNW,292,1.0,-999.0,57,-99.99,,,0.00,weatherlink.com 1.10,2013-03-26 14:06:00,
2013-03-26 10:21:00,47.4,31.0,30.02,NW,325,1.0,-999.0,54,-99.99,,,0.00,weatherlink.com 1.10,2013-03-26 14:21:00,
2013-03-26 10:51:00,49.2,32.0,30.02,WSW,258,1.0,-999.0,51,-99.99,,,0.00,weatherlink.com 1.10,2013-03-26 14:51:00,
2013-03-26 11:06:00,50.0,33.0,30.01,West,269,1.0,-999.0,52,-99.99,,,0.00,weatherlink.com 1.10,2013-03-26 15:06:00,
2013-03-26 11:21:00,50.5,33.0,30.01,NNE,30,2.0,-999.0,51,-99.99,,,0.00,weatherlink.com 1.10,2013-03-26 15:21:00,
2013-03-26 11:36:00,51.2,31.0,30.01,SW,234,1.0,-999.0,47,-99.99,,,0.00,weatherlink.com 1.10,2013-03-26 15:36:00,
2013-03-26 11:51:00,51.2,32.0,30.01,WNW,291,1.0,-999.0,48,-99.99,,,0.00,weatherlink.com 1.10,2013-03-26 15:51:00,
2013-03-26 12:06:00,52.1,32.0,30.01,West,266,0.0,-999.0,46,-99.99,,,0.00,weatherlink.com 1.10,2013-03-26 16:06:00,
2013-03-26 12:21:00,53.3,31.0,30.01,NW,319,0.0,-999.0,42,-99.99,,,0.00,weatherlink.com 1.10,2013-03-26 16:21:00,
2013-03-26 12:36:00,53.5,31.0,30.01,NNW,327,3.0,-999.0,42,-99.99,,,0.00,weatherlink.com 1.10,2013-03-26 16:36:00,
2013-03-26 12:51:00,52.3,30.0,30.01,WSW,258,1.0,-999.0,43,-99.99,,,0.00,weatherlink.com 1.10,2013-03-26 16:51:00,
2013-03-26 13:06:00,53.5,32.0,30.00,NW,311,1.0,-999.0,45,-99.99,,,0.00,weatherlink.com 1.10,2013-03-26 17:06:00,
2013-03-26 13:21:00,53.3,31.0,30.00,NW,320,1.0,-999.0,43,-99.99,,,0.00,weatherlink.com 1.10,2013-03-26 17:21:00,
2013-03-26 13:36:00,54.3,32.0,30.00,NW,324,2.0,-999.0,43,-99.99,,,0.00,weatherlink.com 1.10,2013-03-26 17:36:00,
2013-03-26 13:51:00,52.2,30.0,30.00,NNW,329,2.0,-999.0,43,-99.99,,,0.00,weatherlink.com 1.10,2013-03-26 17:51:00,
2013-03-26 14:06:00,51.1,30.0,30.01,WNW,302,0.0,-999.0,44,-99.99,,,0.00,weatherlink.com 1.10,2013-03-26 18:06:00,
2013-03-26 14:21:00,50.6,31.0,30.01,NNW,333,1.0,-999.0,48,-99.99,,,0.00,weatherlink.com 1.10,2013-03-26 18:21:00,
2013-03-26 14:36:00,51.2,31.0,30.01,North,5,1.0,-999.0,47,-99.99,,,0.00,weatherlink.com 1.10,2013-03-26 18:36:00,
2013-03-26 14:51:00,51.7,31.0,30.01,NNW,335,2.0,-999.0,46,-99.99,,,0.00,weatherlink.com 1.10,2013-03-26 18:51:00,
2013-03-26 15:06:00,51.2,31.0,30.01,WNW,299,0.0,-999.0,47,-99.99,,,0.00,weatherlink.com 1.10,2013-03-26 19:06:00,
2013-03-26 15:21:00,51.1,30.0,30.02,WNW,286,1.0,-999.0,45,-99.99,,,0.00,weatherlink.com 1.10,2013-03-26 19:21:00,
2013-03-26 15:36:00,52.1,31.0,30.01,NW,304,0.0,-999.0,45,-99.99,,,0.00,weatherlink.com 1.10,2013-03-26 19:36:00,
2013-03-26 15:51:00,52.3,31.0,30.01,WNW,299,2.0,-999.0,44,-99.99,,,0.00,weatherlink.com 1.10,2013-03-26 19:51:00,
2013-03-26 16:06:00,51.5,31.0,30.02,WNW,300,1.0,-999.0,45,-99.99,,,0.00,weatherlink.com 1.10,2013-03-26 20:06:00,
2013-03-26 16:21:00,52.1,31.0,30.02,NNW,343,3.0,-999.0,45,-99.99,,,0.00,weatherlink.com 1.10,2013-03-26 20:21:00,
2013-03-26 16:51:00,52.0,31.0,30.02,NNW,327,0.0,-999.0,45,-99.99,,,0.00,weatherlink.com 1.10,2013-03-26 20:51:00,
2013-03-26 17:06:00,52.2,31.0,30.02,WNW,300,0.0,-999.0,44,-99.99,,,0.00,weatherlink.com 1.10,2013-03-26 21:06:00,
2013-03-26 17:21:00,51.8,30.0,30.02,NW,307,0.0,-999.0,44,-99.99,,,0.00,weatherlink.com 1.10,2013-03-26 21:21:00,
2013-03-26 17:36:00,52.3,31.0,30.03,WNW,300,0.0,-999.0,44,-99.99,,,0.00,weatherlink.com 1.10,2013-03-26 21:36:00,
2013-03-26 18:06:00,52.5,30.0,30.05,West,265,3.0,-999.0,43,-99.99,,,0.00,weatherlink.com 1.10,2013-03-26 22:06:00,
2013-03-26 18:21:00,51.9,30.0,30.05,WNW,290,0.0,-999.0,44,-99.99,,,0.00,weatherlink.com 1.10,2013-03-26 22:21:00,
2013-03-26 18:36:00,51.0,31.0,30.06,West,265,0.0,-999.0,46,-99.99,,,0.00,weatherlink.com 1.10,2013-03-26 22:36:00,
2013-03-26 18:51:00,50.3,31.0,30.06,NW,314,0.0,-999.0,47,-99.99,,,0.00,weatherlink.com 1.10,2013-03-26 22:51:00,
2013-03-26 19:07:00,49.6,30.0,30.07,WNW,302,0.0,-999.0,48,-99.99,,,0.00,weatherlink.com 1.10,2013-03-26 23:07:00,
2013-03-26 19:22:00,48.9,31.0,30.08,WNW,302,0.0,-999.0,50,-99.99,,,0.00,weatherlink.com 1.10,2013-03-26 23:22:00,
2013-03-26 19:37:00,48.1,31.0,30.09,WNW,302,0.0,-999.0,51,-99.99,,,0.00,weatherlink.com 1.10,2013-03-26 23:37:00,
2013-03-26 19:52:00,47.4,31.0,30.09,NW,307,1.0,-999.0,53,-99.99,,,0.00,weatherlink.com 1.10,2013-03-26 23:52:00,
2013-03-26 20:07:00,46.9,30.0,30.10,NW,307,0.0,-999.0,53,-99.99,,,0.00,weatherlink.com 1.10,2013-03-27 00:07:00,
2013-03-26 20:22:00,46.3,31.0,30.10,NW,307,0.0,-999.0,55,-99.99,,,0.00,weatherlink.com 1.10,2013-03-27 00:22:00,
2013-03-26 20:37:00,45.9,31.0,30.11,NW,307,0.0,-999.0,56,-99.99,,,0.00,weatherlink.com 1.10,2013-03-27 00:37:00,
2013-03-26 20:52:00,45.6,31.0,30.12,NW,307,0.0,-999.0,57,-99.99,,,0.00,weatherlink.com 1.10,2013-03-27 00:52:00,
2013-03-26 21:07:00,45.3,32.0,30.12,NW,307,0.0,-999.0,59,-99.99,,,0.00,weatherlink.com 1.10,2013-03-27 01:07:00,
2013-03-26 21:22:00,44.9,32.0,30.13,NW,307,0.0,-999.0,60,-99.99,,,0.00,weatherlink.com 1.10,2013-03-27 01:22:00,
2013-03-26 21:37:00,44.2,31.0,30.14,NW,307,0.0,-999.0,61,-99.99,,,0.00,weatherlink.com 1.10,2013-03-27 01:37:00,
2013-03-26 21:52:00,43.7,32.0,30.14,NW,307,0.0,-999.0,63,-99.99,,,0.00,weatherlink.com 1.10,2013-03-27 01:52:00,
2013-03-26 22:07:00,43.2,32.0,30.14,NW,307,0.0,-999.0,65,-99.99,,,0.00,weatherlink.com 1.10,2013-03-27 02:07:00,
2013-03-26 22:22:00,42.9,32.0,30.15,NW,307,0.0,-999.0,66,-99.99,,,0.00,weatherlink.com 1.10,2013-03-27 02:22:00,
2013-03-26 22:37:00,42.7,32.0,30.16,NW,307,0.0,-999.0,66,-99.99,,,0.00,weatherlink.com 1.10,2013-03-27 02:37:00,
2013-03-26 22:52:00,42.5,32.0,30.16,NW,307,0.0,-999.0,67,-99.99,,,0.00,weatherlink.com 1.10,2013-03-27 02:52:00,
2013-03-26 23:07:00,42.3,32.0,30.16,NW,307,0.0,-999.0,68,-99.99,,,0.00,weatherlink.com 1.10,2013-03-27 03:07:00,
2013-03-26 23:22:00,42.3,32.0,30.17,NW,307,0.0,-999.0,68,-99.99,,,0.00,weatherlink.com 1.10,2013-03-27 03:22:00,
2013-03-26 23:37:00,42.2,32.0,30.17,NW,307,0.0,-999.0,67,-99.99,,,0.00,weatherlink.com 1.10,2013-03-27 03:37:00,
2013-03-26 23:52:00,42.0,32.0,30.17,NW,307,0.0,-999.0,67,-99.99,,,0.00,weatherlink.com 1.10,2013-03-27 03:52:00,